Погода в Чернушке

Погода в Чернушке : погода сейчас, прогноз погоды и архив. Всё, что Вы хотите узнать о погоде в Чернушке!

Хотите узнать прогноз погоды в Чернушке? Тогда Вам сюда: Погода в Чернушке

Поиск расширенной информации на нашем сайте:

Другие новости

Новости СМИ2

Главная страница сайта

Новости сайта

02.10.2013

Напоминаем, что на нашем новом сайте вы можете получить высокодетализированные прогнозы погоды по пунктам России, СНГ и мира (включающие важные для авиации метеовеличины, такие как направление и скорость ветра, видимость, явления погоды, количество и форма облачности, нижняя и верхняя граница облачности), а также ознакомиться с разнообразными материалами по авиационной метеорологии и подборкой полезных ссылок на эту тему.

Сайт Метеоцентр.Азия посвящён разработке технологий оптимизации авиаметеорологического обслуживания, включая проектирование и перспективное создание нескольких автоматизированных авиаметеорологических систем:
- система выпуска высокодетальных прогностических карт явлений погоды для нижнего воздушного пространства по России и ближнему зарубежью;
- система верификации прогнозов TAF (выпускаемых синоптиками официальных АМСГ РФ и ближнего зарубежья) и AUTOTAF (выпускаемых сайтом Метеоцентр.Азия) - выявление ошибок, онлайн-сопоставление с фактической погодой METAR, автоматическое внесение коррективов в прогнозы при резком отклонении фактической погоды от прогноза, подсчёт оправдываемости прогнозов по элементам и в целом;
- система обработки, анализа и отображения авиаметеорологической информации для применения провайдерами метеорологической информации.

Рекомендуем: Мебель для гостиницы мебельные технологии мебель для гостиниц.

Погода в Чернушке - сегодня

Время (UTC), дата Ветер
(°,м/с) 
Видим.   Явления Облачность Т
(°С)
Тd
(°С)
f(%) Тe
(°С)
Pmin
(гПа)
dP
(гПа)
Po
(мм)
O2
(г/м3)
Тmin Tmax R s Состояние
почвы
18 27.04.17 210 (ЮЗ) 20000 м    8/8 600 м 
[Sc]
+11.5 +2.5 54 +11  1022.6  0.8  753  291           
21 27.04.17 210 (ЮЗ) 20000 м    10/10 600 м 
[Sc]
+11.3 +2 53 +11  1022.2  -0.4  753  291           
00 28.04.17 180 (Ю) 20000 м    10/10 600 м 
[Sc]
+8.5 +2.7 67 +8  1022.3  0.1  753  294           
03 28.04.17 210 (ЮЗ) 20000 м    9/5 600 м средняя 
[Sc|Ac trans]
+9.8 +1.5 56 +9  1021.9  -0.3  753  293  +7.6      мокрый или
старый снег
10-40% 
06 28.04.17 230 (ЮЗ) 6{12}  20000 м    10/3 2000 м средняя, верхняя 
[Ac trans|Ci fib]
+15 +0.6 37 +14  1020.7  -0.9  752  287           
09 28.04.17 230 (ЮЗ) 8-14{14}  20000 м    10/0 верхняя 
[Ci fib]
+18.8 +0.6 29 +19  1018.8  -1.6  751  283           
12 28.04.17 260 (З) 7-13{17}  20000 м    10/8 600 м кучево-дожд., верхняя 
[Cb cap|Ci fib]
+19.9 -0.8 25 +20  1018.5  -0.2  751  282           
15 28.04.17 330 (СЗ) 5{16}  20000 м    10/10 600 м кучево-дожд. 
[Cb cap]
+14.1 +2.6 46 +14  1020.7  1.8  752  288    +21       
18 28.04.17 230 (ЮЗ) 20000 м  {ливн. осадки}  10/10 600 м кучево-дожд. 
[Cb cap]
+9.2 +3.8 69 +10  1023.1  754  293           
21 28.04.17 340 (С) 20000 м    10/10 600 м кучево-дожд. 
[Cb cap]
+8.1 +3.5 73 +7  1025  1.8  755  295           
00 29.04.17 350 (С) 20000 м    10/10 600 м 
[Sc]
+5.8 +2.6 80 +7  1026.5  1.3  756  298           
03 29.04.17 310 (СЗ) 20000 м    10/10 2000 м 
[Ac und]
+5.8 +2.3 78 +7  1028.9  2.4  758  299  +4.7    0.0  мокрый или
старый снег
10-40% 
06 29.04.17 тихо ()   20000 м    10/10 600 м 
[Sc]
+8.5 +2.2 65 +9  1029.4  0.7  758  296           
09 29.04.17 270 (З) 20000 м    10/10 600 м 
[Sc]
+10.4 -0.7 46 +11  1029.7  0.5  759  295           
12 29.04.17 350 (С) 20000 м    10/10 600 м 
[Sc]
+11 -1.6 41 +11  1030.1  0.4  759  294           
15 29.04.17 020 (С) 20000 м    9/9 2000 м средняя 
[Ac trans]
+9.2 -1.5 47 +8  1031.1  0.9  760  296    +11.2       
18 29.04.17 020 (С) 20000 м    4/4 2000 м средняя 
[Ac trans]
+6 +0.4 67 +6  1032.8  1.4  761  300           
21 29.04.17 030 (СВ) 20000 м    10/10 2000 м 
[Ac und]
+5.5 +0.5 70 +5  1034.1  1.2  762  301           
00 30.04.17 030 (СВ) 20000 м    10/4 600 м средняя 
[Sc|Ac und]
+4.5 -0.5 70 +5  1035.8  1.6  763  302           
03 30.04.17 060 (СВ) 20000 м    9/9 2000 м средняя 
[Ac trans]
+5.1 -0.8 66 +5  1036.5  0.8  763  302  +4.3        мокрая 
06 30.04.17 150 (ЮВ) 20000 м    9/9 2000 м средняя 
[Ac trans]
+8.5 -2.5 46 +10  1036.9  0.5  764  299           
09 30.04.17 040 (СВ) 20000 м    8/8 2000 м средняя 
[Ac trans]
+10.9 -4.4 34 +12  1036.4  0.3  764  296           
12 30.04.17 130 (ЮВ) 20000 м    4/3 2000 м средняя, верхняя 
[Ac trans|Ci fib]
+12.8 -4.3 30 +14  1034.9  -1.3  763  294           
15 30.04.17 230 (ЮЗ) 20000 м    9/8 2000 м средняя, верхняя 
[Ac trans|Ci fib]
+12.2 -4.3 31 +13  1033.8  -1.2  762  294    +13.5       
18 30.04.17 040 (СВ) 20000 м    5/3 2000 м средняя, верхняя 
[Ac trans|Ci fib]
+6.3 -1.1 59 +7  1034.3  0.2  762  300           
Время (UTC), дата Ветер
(°,м/с) 
Видим.   Явления Облачность Т
(°С)
Тd
(°С)
f(%) Тe
(°С)
Pmin
(гПа)
dP
(гПа)
Po
(мм)
O2
(г/м3)
Тmin Tmax R s Состояние
почвы

Для получения пояснительной информации подведите курсор к названию столбца.

ПОГОДА в Чернушке - архив

Всё, что Вы хотите узнать о погоде в Чернушке - удобно и подробно!

Выберите нужную дату (начиная с 1 января 2015* года) и нажмите кнопку "Найти".
Будут отображены архивные сводки погоды по пункту Чернушка, начиная с указанной даты.


Отображать данные в формате CSV (для использования в таблицах Excel)


Внимание! Наш архив погоды предназначен исключительно для личного некоммерческого использования в познавательных целях. Если Вам необходимы официальные справки о состоянии погоды (для производственных, юридических, коммерческих и т.п. целей), обращайтесь в органы Росгидромета.

*Примечание: данная дата относится к архиву по метеостанциям СССР (Россия, СНГ, Балтия).
Архив по метеостанциям Зарубежной Европы и Азии (кроме Китая) хранится 10 дней, по другим регионам земного шара (Китай, Африка, Америка, Австралия, Океания) - 1 день.

Чернушка - район местоположения метеостанции


Название, широта, долгота, высота метеостанции:
Чернушка 56.5°ш. 56.1°д. 148 м над ур. моря [Российская Федерация]

Дополнительная информация

В oтличие oт бoльшинства пoгoдных сайтoв мы публикуем пoдрoбную метеoинфoрмацию в детальнoм прoфессиoнальнoм фoрмате.

Характеристики температуры и влажнoсти вoздуха измеряются на высoте 2 м в тени вдали oт зданий и деревьев.
Скoрoсть ветра измеряется на высoте 10 м (на урoвне рoста челoвека скoрoсть ветра ниже в 1.5-2 раза). Если метеoстанция нахoдится в гoрoде или в лесу, тo скoрoсть ветра занижена на 2-4 м/с пo сравнению с oткрытым местoм. Скoрoсть ветра над акватoриями крупных рек и oзёр, а также на вершинах хoлмoв на 2-5 м/с выше, чем в oбычных услoвиях.
Атмoсфернoе давление в разных тoчках местнoсти мoжет значительнo oтличаться oт давления на метеoстанции, в зависимoсти oт услoвий рельефа (при пoдъёме на 10 м давление пoнижается примернo на 1 мм рт.ст.).